H1 CPF 1 NER 2012 8 27 9 7401 glonass115 H2 0806702 9115 33467 2012 8 27 0 0 0 2012 8 30 23 45 0 900 1 1 0 0 0 H9 10 0 56166 0.00000 0 -9490334.953 -14719860.309 -18534148.364 10 0 56166 900.00000 0 -9708852.426 -16871535.820 -16474051.571 10 0 56166 1800.00000 0 -10043784.423 -18731024.788 -14093708.436 10 0 56166 2700.00000 0 -10449002.094 -20257889.307 -11439411.774 10 0 56166 3600.00000 0 -10872755.141 -21423178.992 -8562776.068 10 0 56166 4500.00000 0 -11260034.356 -22210453.380 -5519730.427 10 0 56166 5400.00000 0 -11555083.815 -22616293.267 -2369427.403 10 0 56166 6300.00000 0 -11703955.872 -22650280.380 826910.729 10 0 56166 7200.00000 0 -11657000.251 -22334447.302 4007185.224 10 0 56166 8100.00000 0 -11371181.376 -21702221.909 7109629.953 10 0 56166 9000.00000 0 -10812125.403 -20796911.832 10074012.403 10 0 56166 9900.00000 0 -9955810.026 -19669793.700 12842802.816 10 0 56166 10800.00000 0 -8789825.262 -18377888.380 15362288.692 10 0 56166 11700.00000 0 -7314151.583 -16981516.351 17583613.161 10 0 56166 12600.00000 0 -5541422.176 -15541736.213 19463717.342 10 0 56166 13500.00000 0 -3496657.647 -14117773.862 20966169.085 10 0 56166 14400.00000 0 -1216483.467 -12764549.798 22061862.758 10 0 56166 15300.00000 0 1252138.017 -11530407.631 22729577.289 10 0 56166 16200.00000 0 3853609.233 -10455138.098 22956382.494 10 0 56166 17100.00000 0 6525763.114 -9568380.380 22737886.420 10 0 56166 18000.00000 0 9202208.213 -8888466.730 22078319.364 10 0 56166 18900.00000 0 11814857.157 -8421757.910 20990453.064 10 0 56166 19800.00000 0 14296534.740 -8162496.555 19495356.487 10 0 56166 20700.00000 0 16583558.434 -8093184.121 17621992.496 10 0 56166 21600.00000 0 18618185.156 -8185465.284 15406662.593 10 0 56166 22500.00000 0 20350823.308 -8401482.500 12892309.638 10 0 56166 23400.00000 0 21741918.523 -8695643.758 10127691.339 10 0 56166 24300.00000 0 22763434.869 -9016729.089 7166439.737 10 0 56166 25200.00000 0 23399869.825 -9310246.987 4066024.345 10 0 56166 26100.00000 0 23648760.615 -9520941.141 886638.767 10 0 56166 27000.00000 0 23520660.705 -9595341.226 -2309967.738 10 0 56166 27900.00000 0 23038587.450 -9484249.366 -5461690.946 10 0 56166 28800.00000 0 22236964.093 -9145056.365 -8507280.860 10 0 56166 29700.00000 0 21160100.739 -8543788.760 -11387535.498 10 0 56166 30600.00000 0 19860278.317 -7656798.965 -14046455.554 10 0 56166 31500.00000 0 18395516.398 -6472025.859 -16432336.925 10 0 56166 32400.00000 0 16827119.001 -4989771.172 -18498779.482 10 0 56166 33300.00000 0 15217101.806 -3222957.498 -20205592.207 10 0 56166 34200.00000 0 13625609.115 -1196855.641 -21519576.908 10 0 56166 35100.00000 0 12108429.112 1051708.701 -22415175.298 10 0 56166 36000.00000 0 10714711.671 3475637.026 -22874966.947 10 0 56166 36900.00000 0 9484984.289 6019276.435 -22890008.542 10 0 56166 37800.00000 0 8449549.002 8620503.635 -22460008.012 10 0 56166 38700.00000 0 7627326.988 11213088.548 -21593330.181 10 0 56166 39600.00000 0 7025198.724 13729239.611 -20306833.870 10 0 56166 40500.00000 0 6637866.618 16102225.312 -18625543.545 10 0 56166 41400.00000 0 6448245.026 18268963.164 -16582161.720 10 0 56166 42300.00000 0 6428360.393 20172468.439 -14216431.538 10 0 56166 43200.00000 0 6540722.626 21764060.851 -11574361.782 10 0 56166 44100.00000 0 6740108.980 23005237.344 -8707329.366 10 0 56166 45000.00000 0 6975684.195 23869133.018 -5671076.955 10 0 56166 45900.00000 0 7193366.420 24341509.599 -2524625.440 10 0 56166 46800.00000 0 7338338.003 24421230.620 670877.200 10 0 56166 47700.00000 0 7357594.140 24120204.180 3853347.708 10 0 56166 48600.00000 0 7202420.846 23462796.555 6960976.374 10 0 56166 49500.00000 0 6830696.748 22484742.209 9933428.937 10 0 56166 50400.00000 0 6208920.879 21231596.915 12713017.802 10 0 56166 51300.00000 0 5313880.307 19756799.736 15245819.736 10 0 56166 52200.00000 0 4133886.754 18119425.831 17482718.447 10 0 56166 53100.00000 0 2669529.666 16381724.701 19380352.105 10 0 56166 54000.00000 0 933913.438 14606547.140 20901948.048 10 0 56166 54900.00000 0 -1047631.872 12854768.292 22018029.215 10 0 56166 55800.00000 0 -3238355.092 11182814.136 22706979.392 10 0 56166 56700.00000 0 -5591371.176 9640393.940 22955457.135 10 0 56166 57600.00000 0 -8051378.679 8268532.426 22758650.983 10 0 56166 58500.00000 0 -10556737.151 7097982.776 22120371.471 10 0 56166 59400.00000 0 -13041819.382 6148085.697 21052978.303 10 0 56166 60300.00000 0 -15439542.022 5426121.184 19577143.991 10 0 56166 61200.00000 0 -17683970.468 4927179.286 17721458.095 10 0 56166 62100.00000 0 -19712890.742 4634554.580 15521879.135 10 0 56166 63000.00000 0 -21470242.128 4520647.295 13021043.953 10 0 56166 63900.00000 0 -22908309.675 4548332.919 10267447.176 10 0 56166 64800.00000 0 -23989585.453 4672742.402 7314505.905 10 0 56166 65700.00000 0 -24688220.852 4843377.733 4219527.138 10 0 56166 66600.00000 0 -24991009.007 5006473.387 1042597.674 10 0 56166 67500.00000 0 -24897856.041 5107503.529 -2154582.127 10 0 56166 68400.00000 0 -24421721.038 5093728.440 -5309897.968 10 0 56166 69300.00000 0 -23588027.057 4916671.769 -8362030.943 10 0 56166 70200.00000 0 -22433567.728 4534422.933 -11251652.604 10 0 56166 71100.00000 0 -21004955.299 3913666.169 -13922582.076 10 0 56166 72000.00000 0 -19356675.340 3031349.324 -16322882.104 10 0 56166 72900.00000 0 -17548829.925 1875920.555 -18405872.375 10 0 56166 73800.00000 0 -15644664.079 448079.379 -20131040.137 10 0 56166 74700.00000 0 -13707979.444 -1238990.933 -21464830.184 10 0 56166 75600.00000 0 -11800543.570 -3159920.852 -22381298.915 10 0 56166 76500.00000 0 -9979603.278 -5277970.843 -22862619.812 10 0 56166 77400.00000 0 -8295606.017 -7546333.414 -22899430.631 10 0 56166 78300.00000 0 -6790224.192 -9909867.634 -22491015.683 10 0 56166 79200.00000 0 -5494764.556 -12307194.638 -21645319.760 10 0 56166 80100.00000 0 -4429028.563 -14673067.355 -20378793.418 10 0 56166 81000.00000 0 -3600670.532 -16940916.172 -18716072.581 10 0 56166 81900.00000 0 -3005079.466 -19045464.794 -16689498.541 10 0 56166 82800.00000 0 -2625788.457 -20925307.291 -14338487.591 10 0 56166 83700.00000 0 -2435393.223 -22525338.918 -11708762.444 10 0 56166 84600.00000 0 -2396939.933 -23798939.286 -8851460.334 10 0 56166 85500.00000 0 -2465722.625 -24709816.587 -5822135.338 10 0 56167 0.00000 0 -2591413.195 -25233435.938 -2679674.610 10 0 56167 900.00000 0 -2720432.693 -25357972.066 514850.442 10 0 56167 1800.00000 0 -2798463.198 -25084747.472 3699374.122 10 0 56167 2700.00000 0 -2772992.160 -24428137.028 6812045.261 10 0 56167 3600.00000 0 -2595781.856 -23414945.046 9792429.980 10 0 56167 4500.00000 0 -2225158.164 -22083280.662 12582684.977 10 0 56167 5400.00000 0 -1628021.734 -20480979.853 15128678.369 10 0 56167 6300.00000 0 -781496.087 -18663640.614 17381036.456 10 0 56167 7200.00000 0 325857.243 -16692354.015 19296096.352 10 0 56167 8100.00000 0 1693308.120 -14631226.171 20836746.601 10 0 56167 9000.00000 0 3307743.120 -12544794.470 21973140.226 10 0 56167 9900.00000 0 5143976.384 -10495445.516 22683267.141 10 0 56167 10800.00000 0 7165573.971 -8540941.724 22953375.661 10 0 56167 11700.00000 0 9326158.317 -6732158.666 22778235.586 10 0 56167 12600.00000 0 11571139.541 -5111126.420 22161238.210 10 0 56167 13500.00000 0 13839802.742 -3709455.328 21114331.497 10 0 56167 14400.00000 0 16067665.636 -2547210.619 19657791.558 10 0 56167 15300.00000 0 18189009.503 -1632281.825 17819834.469 10 0 56167 16200.00000 0 20139479.095 -960272.371 15636075.319 10 0 56167 17100.00000 0 21858643.995 -514913.126 13148844.190 10 0 56167 18000.00000 0 23292415.069 -268982.019 10406371.551 10 0 56167 18900.00000 0 24395215.409 -185690.525 7461858.104 10 0 56167 19800.00000 0 25131815.011 -220478.266 4372446.479 10 0 56167 20700.00000 0 25478752.112 -323139.716 1198114.433 10 0 56167 21600.00000 0 25425281.259 -440192.769 -1999489.144 10 0 56167 22500.00000 0 24973807.839 -517388.573 -5158242.739 10 0 56167 23400.00000 0 24139790.314 -502255.838 -8216761.549 10 0 56167 24300.00000 0 22951113.790 -346571.177 -11115593.750 10 0 56167 25200.00000 0 21446960.844 -8650.040 -13798379.943 10 0 56167 26100.00000 0 19676226.718 544639.716 -16212952.666 10 0 56167 27000.00000 0 17695545.231 1336227.871 -18312354.206 10 0 56167 27900.00000 0 15567008.045 2377626.421 -20055752.658 10 0 56167 28800.00000 0 13355672.809 3668201.208 -21409238.176 10 0 56167 29700.00000 0 11126964.426 5194962.572 -22346483.989 10 0 56167 30600.00000 0 8944077.952 6932885.142 -22849259.362 10 0 56167 31500.00000 0 6865491.486 8845744.499 -22907784.674 10 0 56167 32400.00000 0 4942692.560 10887436.803 -22520921.821 10 0 56167 33300.00000 0 3218212.397 13003727.132 -21696196.360 10 0 56167 34200.00000 0 1724049.499 15134354.146 -20449650.932 10 0 56167 35100.00000 0 480547.521 17215403.765 -18805532.805 10 0 56167 36000.00000 0 -504226.711 19181853.063 -16795821.444 10 0 56167 36900.00000 0 -1234580.128 20970178.243 -14459605.203 10 0 56167 37800.00000 0 -1726762.585 22520917.741 -11842319.161 10 0 56167 38700.00000 0 -2008027.729 23781083.218 -8994858.861 10 0 56167 39600.00000 0 -2115226.476 24706317.348 -5972587.361 10 0 56167 40500.00000 0 -2092993.757 25262707.981 -2834255.152 10 0 56167 41400.00000 0 -1991606.396 25428182.567 359145.736 10 0 56167 42300.00000 0 -1864603.793 25193424.473 3545570.564 10 0 56167 43200.00000 0 -1766273.092 24562272.950 6663130.097 10 0 56167 44100.00000 0 -1749106.092 23551590.305 9651294.243 10 0 56167 45000.00000 0 -1861336.171 22190602.271 12452067.317 10 0 56167 45900.00000 0 -2144659.890 20519739.673 15011111.978 10 0 56167 46800.00000 0 -2632239.968 18589030.272 17278800.116 10 0 56167 47700.00000 0 -3347074.184 16456108.388 19211170.535 10 0 56167 48600.00000 0 -4300799.274 14183925.521 20770775.454 10 0 56167 49500.00000 0 -5492980.540 11838257.360 21927400.132 10 0 56167 50400.00000 0 -6910917.460 9485110.703 22658642.403 10 0 56167 51300.00000 0 -8529974.125 7188137.588 22950341.737 10 0 56167 52200.00000 0 -10314421.542 5006163.266 22796850.142 10 0 56167 53100.00000 0 -12218757.550 2990929.826 22201140.131 10 0 56167 54000.00000 0 -14189450.380 1185148.077 21174747.856 10 0 56167 54900.00000 0 -16167034.311 -379062.520 19737552.412 10 0 56167 55800.00000 0 -18088471.091 -1681282.008 17917395.219 10 0 56167 56700.00000 0 -19889679.664 -2713401.159 15749546.244 10 0 56167 57600.00000 0 -21508129.480 -3479711.185 13276026.631 10 0 56167 58500.00000 0 -22885389.575 -3996469.014 10544800.114 10 0 56167 59400.00000 0 -23969527.179 -4290957.051 7608848.096 10 0 56167 60300.00000 0 -24717255.431 -4400077.550 4525145.716 10 0 56167 61200.00000 0 -25095739.899 -4368541.246 1353558.425 10 0 56167 62100.00000 0 -25083987.661 -4246727.160 -1844319.693 10 0 56167 63000.00000 0 -24673759.929 -4088304.482 -5006363.241 10 0 56167 63900.00000 0 -23869969.176 -3947717.656 -8071124.813 10 0 56167 64800.00000 0 -22690543.300 -3877641.730 -10979032.407 10 0 56167 65700.00000 0 -21165761.838 -3926516.481 -13673551.157 10 0 56167 66600.00000 0 -19337091.487 -4136264.444 -16102286.227 10 0 56167 67500.00000 0 -17255569.312 -4540290.384 -18218005.040 10 0 56167 68400.00000 0 -14979800.974 -5161847.737 -19979558.675 10 0 56167 69300.00000 0 -12573657.560 -6012842.025 -21352684.312 10 0 56167 70200.00000 0 -10103767.043 -7093122.821 -22310673.109 10 0 56167 71100.00000 0 -7636904.891 -8390295.146 -22834890.650 10 0 56167 72000.00000 0 -5237392.516 -9880059.291 -22915139.893 10 0 56167 72900.00000 0 -2964611.624 -11527065.778 -22549859.755 10 0 56167 73800.00000 0 -870737.591 -13286250.547 -21746155.513 10 0 56167 74700.00000 0 1001214.222 -15104595.102 -20519660.457 10 0 56167 75600.00000 0 2618948.590 -16923238.521 -18894231.441 10 0 56167 76500.00000 0 3961992.864 -18679853.312 -16901484.093 10 0 56167 77400.00000 0 5022296.748 -20311185.770 -14580176.636 10 0 56167 78300.00000 0 5804305.660 -21755654.521 -11975454.180 10 0 56167 79200.00000 0 6324506.019 -22955898.215 -9137968.152 10 0 56167 80100.00000 0 6610463.017 -23861165.334 -6122888.129 10 0 56167 81000.00000 0 6699392.886 -24429445.598 -2988825.531 10 0 56167 81900.00000 0 6636331.313 -24629253.279 203309.579 10 0 56167 82800.00000 0 6471976.627 -24440987.342 3391495.773 10 0 56167 83700.00000 0 6260300.113 -23857811.237 6513808.083 10 0 56167 84600.00000 0 6056025.514 -22886015.411 9509622.452 10 0 56167 85500.00000 0 5912085.066 -21544847.451 12320792.936 10 0 56168 0.00000 0 5877160.188 -19865817.206 14892778.655 10 0 56168 900.00000 0 5993411.471 -17891505.821 17175698.957 10 0 56168 1800.00000 0 6294492.990 -15673929.380 19125295.838 10 0 56168 2700.00000 0 6803936.605 -13272524.443 20703786.467 10 0 56168 3600.00000 0 7533972.542 -10751840.047 21880589.326 10 0 56168 4500.00000 0 8484837.334 -8179031.526 22632910.867 10 0 56168 5400.00000 0 9644597.962 -5621259.815 22946182.118 10 0 56168 6300.00000 0 10989500.283 -3143103.366 22814337.428 10 0 56168 7200.00000 0 12484827.776 -804089.208 22239930.424 10 0 56168 8100.00000 0 14086235.600 1343555.566 21234085.131 10 0 56168 9000.00000 0 15741505.187 3256839.716 19816283.136 10 0 56168 9900.00000 0 17392647.005 4903551.863 18013990.547 10 0 56168 10800.00000 0 18978264.623 6263349.526 15862131.390 10 0 56168 11700.00000 0 20436082.043 7328348.870 13402416.890 10 0 56168 12600.00000 0 21705529.139 8103191.388 10682542.857 10 0 56168 13500.00000 0 22730277.265 8604585.585 7755269.990 10 0 56168 14400.00000 0 23460618.822 8860343.587 4677404.287 10 0 56168 15300.00000 0 23855590.591 8907953.716 1508696.991 10 0 56168 16200.00000 0 23884751.195 8792749.751 -1689314.746 10 0 56168 17100.00000 0 23529537.211 8565754.638 -4854503.947 10 0 56168 18000.00000 0 22784140.027 8281290.272 -7925363.036 10 0 56168 18900.00000 0 21655865.626 7994455.022 -10842202.303 10 0 56168 19800.00000 0 20164961.163 7758576.379 -13548313.868 10 0 56168 20700.00000 0 18343914.755 7622747.176 -15991077.895 10 0 56168 21600.00000 0 16236257.008 7629550.372 -18122989.207 10 0 56168 22500.00000 0 13894913.807 7813069.371 -19902584.019 10 0 56168 23400.00000 0 11380178.767 8197268.737 -21295248.545 10 0 56168 24300.00000 0 8757389.598 8794814.448 -22273893.780 10 0 56168 25200.00000 0 6094404.940 9606384.265 -22819483.354 10 0 56168 26100.00000 0 3458986.552 10620498.054 -22921404.356 10 0 56168 27000.00000 0 916195.475 11813875.938 -22577673.994 10 0 56168 27900.00000 0 -1474089.906 13152309.989 -21794978.217 10 0 56168 28800.00000 0 -3659431.079 14592013.430 -20588541.526 10 0 56168 29700.00000 0 -5596768.635 16081391.203 -18981830.482 10 0 56168 30600.00000 0 -7253963.591 17563157.999 -17006096.532 10 0 56168 31500.00000 0 -8610877.446 18976714.985 -14699766.954 10 0 56168 32400.00000 0 -9659947.111 20260685.506 -12107695.637 10 0 56168 33300.00000 0 -10406231.961 21355503.152 -9280288.224 10 0 56168 34200.00000 0 -10866932.471 22205943.155 -6272518.767 10 0 56168 35100.00000 0 -11070402.193 22763490.411 -3142857.240 10 0 56168 36000.00000 0 -11054696.173 22988444.155 47870.904 10 0 56168 36900.00000 0 -10865718.431 22851670.419 3237670.421 10 0 56168 37800.00000 0 -10555048.016 22335928.283 6364583.652 10 0 56168 38700.00000 0 -10177536.618 21436713.905 9367895.715 10 0 56168 39600.00000 0 -9788780.148 20162586.748 12189313.600 10 0 56168 40500.00000 0 -9442571.796 18534964.210 14774096.154 10 0 56168 41400.00000 0 -9188444.584 16587393.133 17072113.073 10 0 56168 42300.00000 0 -9069407.331 14364328.625 19038812.563 10 0 56168 43200.00000 0 -9119969.522 11919470.947 20636079.470 10 0 56168 44100.00000 0 -9364538.251 9313729.476 21832967.941 10 0 56168 45000.00000 0 -9816254.566 6612898.045 22606295.144 10 0 56168 45900.00000 0 -10476318.132 3885137.560 22941085.368 10 0 56168 46800.00000 0 -11333828.697 1198369.567 22830856.555 10 0 56168 47700.00000 0 -12366151.325 -1382312.094 22277744.190 10 0 56168 48600.00000 0 -13539790.602 -3797105.311 21292460.386 10 0 56168 49500.00000 0 -14811737.911 -5993738.433 19894088.868 10 0 56168 50400.00000 0 -16131236.140 -7929391.876 18109719.528 10 0 56168 51300.00000 0 -17441888.750 -9572223.932 15973929.012 10 0 56168 52200.00000 0 -18684025.640 -10902438.355 13528116.684 10 0 56168 53100.00000 0 -19797227.219 -11912850.066 10819708.070 10 0 56168 54000.00000 0 -20722901.182 -12608926.216 7901240.450 10 0 56168 54900.00000 0 -21406803.938 -13008301.586 4829347.689 10 0 56168 55800.00000 0 -21801400.470 -13139789.243 1663663.648 10 0 56168 56700.00000 0 -21867962.915 -13041928.637 -1534334.758 10 0 56168 57600.00000 0 -21578318.808 -12761132.843 -4702522.350 10 0 56168 58500.00000 0 -20916174.404 -12349513.596 -7779334.765 10 0 56168 59400.00000 0 -19877956.309 -11862476.574 -10704967.942 10 0 56168 60300.00000 0 -18473134.827 -11356189.082 -13422544.236 10 0 56168 61200.00000 0 -16724014.272 -10885027.833 -15879221.895 10 0 56168 62100.00000 0 -14664997.955 -10499115.293 -18027225.953 10 0 56168 63000.00000 0 -12341357.630 -10242049.333 -19824780.202 10 0 56168 63900.00000 0 -9807558.090 -10148922.652 -21236921.869 10 0 56168 64800.00000 0 -7125206.183 -10244716.129 -22236183.185 10 0 56168 65700.00000 0 -4360709.158 -10543134.405 -22803126.658 10 0 56168 66600.00000 0 -1582739.507 -11045933.243 -22926723.705 10 0 56168 67500.00000 0 1140388.728 -11742767.450 -22604569.473 10 0 56168 68400.00000 0 3743323.489 -12611566.214 -21842929.712 10 0 56168 69300.00000 0 6166150.248 -13619420.406 -20656618.820 10 0 56168 70200.00000 0 8356637.210 -14723944.837 -19068711.385 10 0 56168 71100.00000 0 10272157.434 -15875058.416 -17110092.696 10 0 56168 72000.00000 0 11881208.547 -17017107.393 -14818856.835 10 0 56168 72900.00000 0 13164467.693 -18091242.355 -12239563.996 10 0 56168 73800.00000 0 14115338.791 -19037948.751 -9422371.354 10 0 56168 74700.00000 0 14739970.436 -19799624.120 -6422054.592 10 0 56168 75600.00000 0 15056745.157 -20323093.081 -3296939.279 10 0 56168 76500.00000 0 15095262.944 -20561953.694 -107763.229 10 0 56168 77400.00000 0 14894863.294 -20478655.853 3083507.502 10 0 56168 78300.00000 0 14502749.433 -20046223.728 6214885.488 10 0 56168 79200.00000 0 13971795.110 -19249549.296 9225567.770 10 0 56168 80100.00000 0 13358127.518 -18086202.221 12057116.784 10 0 56168 81000.00000 0 12718589.183 -16566721.701 14654593.259 10 0 56168 81900.00000 0 12108186.393 -14714377.715 16967619.193 10 0 56168 82800.00000 0 11577632.037 -12564411.381 18951350.434 10 0 56168 83700.00000 0 11171086.381 -10162785.756 20567340.576 10 0 56168 84600.00000 0 10924190.707 -7564498.679 21784280.108 10 0 56168 85500.00000 0 10862476.227 -4831527.358 22578597.194 10 0 56169 0.00000 0 11000214.767 -2030489.374 22934909.295 10 0 56169 900.00000 0 11339759.524 769883.879 22846317.514 10 0 56169 1800.00000 0 11871402.577 3501357.192 22314538.478 10 0 56169 2700.00000 0 12573756.686 6098778.071 21349871.406 10 0 56169 3600.00000 0 13414644.129 8502533.992 19971001.006 10 0 56169 4500.00000 0 14352456.766 10660779.115 18204639.627 10 0 56169 5400.00000 0 15337930.447 12531339.409 16085015.089 10 0 56169 6300.00000 0 16316260.035 14083217.916 13653213.345 10 0 56169 7200.00000 0 17229466.732 15297638.277 10956387.977 10 0 56169 8100.00000 0 18018918.629 16168583.773 8046851.079 10 0 56169 9000.00000 0 18627898.646 16702809.998 4981062.510 10 0 56169 9900.00000 0 19004111.633 16919331.119 1818536.762 10 0 56169 10800.00000 0 19102024.652 16848401.851 -1379311.544 10 0 56169 11700.00000 0 18884941.094 16530038.420 -4550361.131 10 0 56169 12600.00000 0 18326720.305 16012141.254 -7632992.947 10 0 56169 13500.00000 0 17413069.090 15348299.096 -10567290.627 10 0 56169 14400.00000 0 16142349.424 14595367.678 -13296208.713 10 0 56169 15300.00000 0 14525867.064 13810925.728 -15766685.361 10 0 56169 16200.00000 0 12587627.605 13050716.206 -17930677.517 10 0 56169 17100.00000 0 10363568.925 12366181.298 -19746098.121 10 0 56169 18000.00000 0 7900301.055 11802195.583 -21177636.885 10 0 56169 18900.00000 0 5253405.148 11395093.384 -22197448.661 10 0 56169 19800.00000 0 2485361.657 11171073.688 -22785696.090 10 0 56169 20700.00000 0 -336806.597 11145050.117 -22930936.045 10 0 56169 21600.00000 0 -3144078.970 11319994.456 -22630342.519 10 0 56169 22500.00000 0 -5868063.898 11686801.527 -21889761.696 10 0 56169 23400.00000 0 -8443599.351 12224681.103 -20723598.171 10 0 56169 24300.00000 0 -10811219.256 12902060.367 -19154534.467 10 0 56169 25200.00000 0 -12919383.879 13677958.901 -17213089.205 10 0 56169 26100.00000 0 -14726381.878 14503778.146 -14937022.387 10 0 56169 27000.00000 0 -16201825.536 15325429.756 -12370599.258 10 0 56169 27900.00000 0 -17327677.706 16085712.864 -9563726.979 10 0 56169 28800.00000 0 -18098768.493 16726839.602 -6570981.045 10 0 56169 29700.00000 0 -18522781.296 17193001.891 -3450540.581 10 0 56169 30600.00000 0 -18619710.083 17432870.663 -263053.531 10 0 56169 31500.00000 0 -18420812.062 17401921.473 2929545.651 10 0 56169 32400.00000 0 -17967101.174 17064487.865 6065242.336 10 0 56169 33300.00000 0 -17307447.144 16395455.329 9083148.210 10 0 56169 34200.00000 0 -16496361.285 15381524.008 11924683.966 10 0 56169 35100.00000 0 -15591563.278 14021986.539 14534715.102 10 0 56169 36000.00000 0 -14651432.081 12328987.856 16862618.787 10 0 56169 36900.00000 0 -13732448.634 10327255.597 18863261.300 10 0 56169 37800.00000 0 -12886738.039 8053311.857 20497867.601 10 0 56169 38700.00000 0 -12159814.321 5554198.504 21734766.881 10 0 56169 39600.00000 0 -11588622.119 2885768.535 22550000.342 10 0 56169 40500.00000 0 -11199956.974 110613.645 22927780.261 10 0 56169 41400.00000 0 -11009329.922 -2704286.916 22860792.117 10 0 56169 42300.00000 0 -11020323.544 -5490099.642 22350334.410 10 0 56169 43200.00000 0 -11224466.064 -8178748.356 21406293.726 10 0 56169 44100.00000 0 -11601628.670 -10705497.021 20046955.488 10 0 56169 45000.00000 0 -12120929.375 -13011397.663 18298653.756 10 0 56169 45900.00000 0 -12742105.724 -15045502.947 16195266.294 10 0 56169 46800.00000 0 -13417299.004 -16766752.369 13777563.991 10 0 56169 47700.00000 0 -14093175.328 -18145454.317 11092426.450 10 0 56169 48600.00000 0 -14713294.643 -19164302.862 8191938.235 10 0 56169 49500.00000 0 -15220628.073 -19818887.375 5132382.602 10 0 56169 50400.00000 0 -15560117.425 -20117673.983 1973151.890 10 0 56169 51300.00000 0 -15681168.595 -20081460.034 -1224404.516 10 0 56169 52200.00000 0 -15539973.054 -19742324.833 -4398172.296 10 0 56169 53100.00000 0 -15101558.590 -19142121.085 -7486480.845 10 0 56169 54000.00000 0 -14341481.656 -18330570.964 -10429304.669 10 0 56169 54900.00000 0 -13247088.688 -17363047.424 -13169433.662 10 0 56169 55800.00000 0 -11818291.845 -16298134.715 -15653588.977 10 0 56169 56700.00000 0 -10067825.098 -15195071.376 -17833462.374 10 0 56169 57600.00000 0 -8020968.444 -14111183.866 -19666658.572 10 0 56169 58500.00000 0 -5714750.471 -13099419.314 -21117522.003 10 0 56169 59400.00000 0 -3196661.409 -12206081.543 -22157831.892 10 0 56169 60300.00000 0 -522929.279 -11468865.776 -22767352.238 10 0 56169 61200.00000 0 2243569.833 -10915274.747 -22934226.025 10 0 56169 62100.00000 0 5035681.149 -10561482.758 -22655206.209 10 0 56169 63000.00000 0 7784522.322 -10411695.220 -21935719.025 10 0 56169 63900.00000 0 10422110.652 -10458030.404 -20789758.417 10 0 56169 64800.00000 0 12883957.698 -10680927.999 -19239613.602 10 0 56169 65700.00000 0 15111523.793 -11050066.918 -17315434.915 10 0 56169 66600.00000 0 17054430.713 -11525753.287 -15054646.298 10 0 56169 67500.00000 0 18672340.855 -12060719.629 -12501215.713 10 0 56169 68400.00000 0 19936425.170 -12602258.873 -9704797.627 10 0 56169 69300.00000 0 20830359.244 -13094602.547 -6719764.353 10 0 56169 70200.00000 0 21350806.778 -13481442.147 -3604145.320 10 0 56169 71100.00000 0 21507371.275 -13708486.520 -418495.172 10 0 56169 72000.00000 0 21322019.086 -13725946.579 2775286.732 10 0 56169 72900.00000 0 20827999.307 -13490841.743 5915162.011 10 0 56169 73800.00000 0 20068307.137 -12969030.088 8940160.254 10 0 56169 74700.00000 0 19093756.464 -12136875.984 11791563.396 10 0 56169 75600.00000 0 17960743.707 -10982484.372 14414044.306 10 0 56169 76500.00000 0 16728797.718 -9506449.173 16756737.498 10 0 56169 77400.00000 0 15458019.146 -7722083.820 18774221.390 10 0 56169 78300.00000 0 14206517.008 -5655123.620 20427393.541 10 0 56169 79200.00000 0 13027949.867 -3342911.621 21684222.606 10 0 56169 80100.00000 0 11969274.336 -833101.177 22520363.124 10 0 56169 81000.00000 0 11068794.625 1818071.693 22919622.054 10 0 56169 81900.00000 0 10354594.071 4547875.422 22874268.698 10 0 56169 82800.00000 0 9843413.589 7289443.837 22385182.502 10 0 56169 83700.00000 0 9540023.254 9974314.193 21461836.148 10 0 56169 84600.00000 0 9437112.764 12535038.218 20122114.224 10 0 56169 85500.00000 0 9515704.983 14907758.869 18391970.710 99